Hauptseite
METAR-TAF:

METAR-TAF

Flughäfen :

Diepholz, Deutschland

Fliegerhorst Diepholz

Breite: 52-35N, Länge: 008-21E, Höhe: 39 m

Beobachtung

Neuester Wetterbericht von vor 47 Minuten, um 11:20 UTC
Wind 10 kt aus West
Temperatur 19°C
Luftfeuchtigkeit 60%
Luftdruck 1023 hPa
Sichtweite 10 km oder mehr
Aufgelockert bewölkt in der Höhe von 2800 ft
Aufgelockert bewölkt in der Höhe von 30000 ft

METAR: ETND 211120Z 28010KT 9999 SCT028 SCT300 19/11 Q1023 BLU+

Zeit: 14:07 (12:07 UTC)


TAF: fehlend

Wetterbeobachtungen und Prognosen von mehr als 4000 Flughäfen (METAR und TAF Bericht).

Die verfügbaren Stationen werden durch gelbe und rote Markierungen auf der Karte dargestellt.

Führen Sie die Maus auf sie, um den Namen der Station zu sehen.

Darauf klicken, um die Beobachtung von Wetterbeobachtungen und Prognosen zu sehen.

Um die Karte zu ändern : klicken Sie auf den grünen Tasten mit einem schwarzen Kreuz Zum Vergrößern, auf den grünen Button mit einem Gedankenstrich zu verkleinern, oder auf die grünen Pfeile für benachbarte Karten.


METAR-TAF: